FW2442 Weather Reports


time (UTC)temp
C
wind
direction
speed
KPH
gust
KPH
rain 1hr
cm
rain 24hr
cm
rain mn
cm
humidity
%
barometer
mb
20260510194522 13 0.0 0.0 0.00 0.30 0.30 86 1015.2
20260510193522 13 0.0 0.0 0.00 0.36 0.30 85 1015.1
20260510192522 13 53 1.6 1.6 0.00 0.46 0.30 85 1015.0
20260510191521 13 53 1.6 1.6 0.00 0.51 0.30 85 1015.0
20260510190523 13 0.0 0.0 0.00 0.56 0.30 85 1015.2
20260510185523 13 47 0.0 1.6 0.00 0.58 0.30 85 1015.2
20260510184543 13 46 1.6 1.6 0.00 0.61 0.30 85 1015.1
20260510183523 13 49 1.6 1.6 0.00 0.61 0.30 85 1015.1
20260510182522 13 70 1.6 1.6 0.00 0.61 0.30 85 1015.0
20260510181523 13 64 0.0 1.6 0.00 0.61 0.30 84 1015.1
20260510180522 14 0.0 0.0 0.00 0.61 0.30 84 1015.0
20260510175521 14 43 1.6 1.6 0.00 0.61 0.30 84 1014.9
20260510174523 14 48 1.6 1.6 0.00 0.61 0.30 82 1014.8
20260510173543 15 48 1.6 1.6 0.00 0.61 0.30 82 1014.7
20260510172522 15 40 1.6 1.6 0.00 0.61 0.30 80 1014.7
20260510171523 15 38 1.6 1.6 0.00 0.61 0.30 79 1014.8
20260510170522 16 24 1.6 1.6 0.00 0.61 0.30 78 1014.8
20260510165542 16 29 1.6 1.6 0.00 0.61 0.30 76 1014.8
20260510164522 16 11 1.6 1.6 0.00 0.61 0.30 75 1014.8
20260510163542 17 343 1.6 1.6 0.00 0.61 0.30 74 1014.9
20260510162523 17 358 1.6 1.6 0.00 0.61 0.30 74 1014.8
20260510161523 16 349 1.6 1.6 0.00 0.61 0.30 74 1014.9
20260510160522 17 353 1.6 3.2 0.00 0.61 0.30 73 1014.9
20260510155522 17 358 1.6 3.2 0.00 0.61 0.30 74 1014.9
20260510154522 16 1 1.6 3.2 0.00 0.61 0.30 75 1014.9
20260510153522 17 340 1.6 3.2 0.00 0.61 0.30 72 1014.9
20260510152522 17 336 3.2 3.2 0.00 0.61 0.30 73 1014.9
20260510151522 17 6 1.6 4.8 0.00 0.61 0.30 72 1014.9
20260510150522 17 357 4.8 9.7 0.00 0.61 0.30 71 1014.9
20260510145523 17 5 3.2 6.4 0.00 0.61 0.30 71 1014.9
20260510144523 17 9 3.2 8.0 0.00 0.61 0.30 73 1014.9
20260510143543 17 348 4.8 14.5 0.00 0.61 0.30 72 1015.0
20260510142523 17 353 3.2 9.7 0.00 0.61 0.30 74 1015.1
20260510141543 17 330 3.2 9.7 0.00 0.61 0.30 75 1015.1
20260510140522 17 330 6.4 12.9 0.00 0.61 0.30 75 1015.1
20260510135523 17 310 3.2 6.4 0.00 0.61 0.30 75 1015.1
20260510134522 17 316 6.4 16.1 0.00 0.61 0.30 77 1015.2
20260510133522 16 339 4.8 9.7 0.00 0.61 0.30 78 1015.3
20260510132526 17 315 9.7 16.1 0.00 0.61 0.30 77 1015.3
20260510130523 17 329 8.0 19.3 0.00 0.61 0.30 78 1015.4
20260510125603 16 339 9.7 19.3 0.00 0.61 0.30 78 1015.6
20260510124522 17 336 8.0 16.1 0.00 0.61 0.30 77 1015.6
20260510123528 16 1 6.4 12.9 0.00 0.61 0.30 80 1015.6
20260510122543 16 342 6.4 11.3 0.00 0.61 0.30 85 1015.9
20260510121542 15 344 4.8 12.9 0.00 0.61 0.30 87 1016.0
20260510120522 15 324 6.4 16.1 0.00 0.61 0.30 88 1016.1
20260510115522 15 322 8.0 17.7 0.00 0.61 0.30 90 1016.3
20260510114523 14 312 9.7 19.3 0.00 0.61 0.30 93 1016.5
20260510113522 13 304 8.0 14.5 0.00 0.61 0.30 95 1016.6
20260510112523 13 305 11.3 19.3 0.00 0.61 0.30 95 1016.6
20260510111523 13 306 12.9 20.9 0.00 0.61 0.30 96 1016.6
20260510110542 13 301 14.5 20.9 0.00 0.61 0.30 96 1016.7
20260510105523 13 296 14.5 22.5 0.00 0.61 0.30 97 1016.7
20260510104523 13 298 12.9 20.9 0.00 0.61 0.30 97 1016.8
20260510103522 13 303 11.3 22.5 0.00 0.61 0.30 97 1016.8
20260510102522 13 302 12.9 20.9 0.00 0.61 0.30 98 1016.9
20260510101543 13 296 14.5 20.9 0.00 0.61 0.30 98 1016.8
20260510100523 13 300 11.3 17.7 0.00 0.61 0.30 98 1016.8
20260510095522 13 296 14.5 25.7 0.00 0.61 0.30 98 1016.8
20260510094523 13 299 12.9 24.1 0.00 0.61 0.30 98 1016.9
20260510093523 13 293 9.7 17.7 0.00 0.61 0.30 99 1016.8
20260510092523 13 301 8.0 14.5 0.00 0.61 0.30 99 1016.8
20260510091603 13 313 11.3 19.3 0.00 0.61 0.30 99 1016.9
20260510090522 12 308 11.3 22.5 0.00 0.61 0.30 99 1016.9
20260510085523 12 305 12.9 22.5 0.03 0.61 0.30 99 1016.9
20260510084542 12 302 11.3 20.9 0.03 0.61 0.30 99 1016.9
20260510083523 12 307 11.3 17.7 0.05 0.61 0.30 99 1016.9
20260510082522 12 303 11.3 17.7 0.05 0.61 0.30 99 1016.8
20260510081522 13 321 4.8 12.9 0.05 0.61 0.30 99 1016.8
20260510080542 12 299 6.4 14.5 0.05 0.61 0.30 99 1016.9
20260510075522 12 293 6.4 14.5 0.05 0.58 0.28 99 1016.8
20260510074523 12 300 12.9 22.5 0.05 0.58 0.28 99 1016.8
20260510073522 12 305 9.7 22.5 0.05 0.56 0.25 99 1016.8
20260510072522 12 299 9.7 24.1 0.05 0.56 0.25 99 1016.8
20260510071523 12 298 11.3 25.7 0.08 0.56 0.25 99 1016.7
20260510070523 12 311 12.9 20.9 0.08 0.56 0.25 99 1016.8
20260510065522 12 310 14.5 24.1 0.08 0.53 0.23 99 1016.8
20260510064523 12 314 16.1 25.7 0.08 0.53 0.23 99 1016.8
20260510063542 12 307 17.7 25.7 0.05 0.51 0.20 99 1016.8
20260510062523 12 303 12.9 25.7 0.05 0.51 0.20 99 1016.8
20260510061523 12 309 16.1 25.7 0.03 0.48 0.18 99 1016.7
20260510060523 12 303 12.9 27.4 0.03 0.48 0.18 99 1016.7
20260510055523 12 310 14.5 27.4 0.00 0.46 0.15 99 1016.6
20260510054603 12 312 12.9 25.7 0.00 0.46 0.15 99 1016.6
20260510053603 12 312 14.5 27.4 0.00 0.46 0.15 99 1016.6
20260510052523 12 318 12.9 20.9 0.03 0.46 0.15 99 1016.6
20260510051522 12 302 11.3 22.5 0.03 0.46 0.15 99 1016.5
20260510050548 12 299 16.1 24.1 0.03 0.46 0.15 99 1016.5
20260510045521 12 300 11.3 24.1 0.03 0.46 0.15 99 1016.5
20260510044523 12 307 11.3 22.5 0.03 0.46 0.15 99 1016.4
20260510043521 12 313 4.8 12.9 0.03 0.46 0.15 99 1016.3
20260510042548 12 326 4.8 9.7 0.00 0.43 0.13 99 1016.3
20260510041523 12 328 4.8 11.3 0.03 0.43 0.13 99 1016.3
20260510040525 12 316 6.4 14.5 0.03 0.43 0.13 99 1016.2
20260510035523 12 327 4.8 14.5 0.03 0.43 0.13 100 1016.2
20260510034523 12 333 6.4 17.7 0.05 0.43 0.13 100 1016.2
20260510033523 12 330 4.8 8.0 0.05 0.43 0.13 99 1016.1
20260510032523 12 333 3.2 12.9 0.08 0.43 0.13 99 1016.0
20260510031523 12 337 3.2 4.8 0.05 0.41 0.10 99 1016.1
20260510030523 12 6 4.8 11.3 0.05 0.43 0.10 99 1016.1
20260510025524 12 335 4.8 16.1 0.08 0.43 0.10 99 1016.1
20260510024522 12 334 3.2 4.8 0.05 0.41 0.08 99 1016.0
20260510023543 12 352 4.8 9.7 0.05 0.41 0.08 99 1016.0
20260510022543 12 324 3.2 9.7 0.03 0.38 0.05 99 1016.0
20260510021523 12 337 4.8 9.7 0.03 0.38 0.05 99 1016.0
20260510020523 12 54 3.2 9.7 0.03 0.38 0.05 99 1016.0
20260510015530 13 342 3.2 9.7 0.00 0.36 0.03 99 1016.0
20260510014537 13 340 3.2 14.5 0.00 0.36 0.03 99 1016.1
20260510013523 13 342 4.8 8.0 0.00 0.36 0.03 99 1016.1
20260510012544 13 348 3.2 11.3 0.00 0.36 0.03 99 1016.1
20260510011523 13 341 3.2 11.3 0.00 0.36 0.03 99 1016.2
20260510010524 13 336 3.2 4.8 0.00 0.36 0.03 99 1016.2
20260510005523 13 330 3.2 4.8 0.00 0.36 0.03 99 1016.2
20260510004523 13 334 3.2 6.4 0.00 0.36 0.03 99 1016.2
20260510003520 13 351 3.2 3.2 0.00 0.36 0.03 99 1016.2
20260510002543 13 349 4.8 9.7 0.00 0.36 0.03 99 1016.3
20260510001524 13 345 3.2 9.7 0.00 0.36 0.03 99 1016.2
20260510000543 13 352 3.2 11.3 0.00 0.36 0.03 99 1016.3
20260509235523 13 341 4.8 9.7 0.00 0.36 0.03 99 1016.4
20260509234523 13 355 6.4 12.9 0.00 0.36 0.03 99 1016.4
20260509233523 13 341 4.8 11.3 0.00 0.36 0.03 99 1016.5
20260509232524 13 356 3.2 8.0 0.00 0.36 0.03 99 1016.6
20260509231540 13 341 3.2 6.4 0.00 0.36 0.03 99 1016.7
20260509230524 13 344 3.2 4.8 0.00 0.36 0.03 99 1016.8
20260509225523 13 333 3.2 8.0 0.00 0.36 0.03 99 1016.8
20260509224523 13 339 4.8 12.9 0.00 0.36 0.03 99 1016.9
20260509223523 13 2 3.2 9.7 0.00 0.36 0.03 99 1016.9
20260509222524 13 336 4.8 11.3 0.03 0.36 0.03 99 1017.0
20260509221523 13 354 3.2 12.9 0.03 0.36 0.03 99 1017.1
20260509220603 13 11 3.2 8.0 0.03 0.36 0.03 98 1017.1
20260509215523 13 350 4.8 9.7 0.03 0.36 0.03 98 1017.2
20260509214522 13 341 3.2 11.3 0.03 0.36 0.03 98 1017.2
20260509213543 13 342 3.2 6.4 0.03 0.36 0.03 98 1017.3
20260509212523 13 339 3.2 8.0 0.00 0.33 0.00 98 1017.2
20260509211558 13 339 3.2 6.4 0.00 0.33 0.00 98 1017.2
20260509210523 13 328 3.2 9.7 0.00 0.33 0.00 98 1017.3
20260509205523 13 336 6.4 11.3 0.00 0.33 0.33 97 1017.2
20260509204523 13 337 4.8 11.3 0.00 0.33 0.33 97 1017.3
20260509203522 13 335 4.8 12.9 0.05 0.33 0.33 97 1017.3
20260509202542 13 328 3.2 8.0 0.15 0.33 0.33 97 1017.2
20260509201521 13 334 3.2 8.0 0.20 0.33 0.33 97 1017.3
20260509200521 13 352 4.8 9.7 0.25 0.33 0.33 97 1017.2
20260509195522 13 343 3.2 6.4 0.28 0.33 0.33 96 1017.2